Regional Weather Roundup
Issued by NWS

Home | Current Version | Previous Version | Graphics & Text | Print | Product List | Glossary On
Versions: 1 2 3 4 5 6 7 8 9 10 11 12 13 14 15 16 17 18 19 20 21 22 23 24 25 26 27 28 29 30 31 32 33 34 35 36 37 38 39 40 41 42 43 44 45 46 47 48 49 50
000
ASUS45 KSLC 030810
RWRUT
UTAH REGIONAL WEATHER ROUNDUP
NATIONAL WEATHER SERVICE SALT LAKE CITY UT
200 AM MDT MON AUG 03 2015

UTZ001>011-023>025-030900-

NORTHERN UTAH

CITY           SKY/WX    TMP DP  RH WIND       PRES   REMARKS
BRIGHAM CITY   CLOUDY    77  45  31 SW5       29.99F
HILL AFB       CLOUDY    73  52  48 S22G29    30.02F
LOGAN          PTCLDY    70  49  47 N6        29.98S
OGDEN          CLOUDY    75  51  43 S14G23    29.99F
PROVO AIRPORT  CLOUDY    63  57  82 E5        30.09F
SALT LAKE CITY CLOUDY    74  52  46 S18G30    29.99F
VERNAL         CLOUDY    64  57  78 CALM      30.10F
WENDOVER       CLOUDY    81  45  28 S10       29.97S
HEBER CITY     RAIN      61  55  82 W8        30.15R
WEST JORDAN    CLOUDY    70  54  56 S18G26    30.05S

$$

UTZ012>022-026-027-030900-

SOUTHERN/CENTRAL UTAH

CITY           SKY/WX    TMP DP  RH WIND       PRES   REMARKS
BLANDING       CLOUDY    61  60  96 CALM      30.23F
BRYCE CANYON   CLEAR     49  47  93 W10       30.26S
CEDAR CITY     MOCLDY    61  47  59 NE3       30.11S
DELTA          CLOUDY    63  58  86 CALM      30.11F
HANKSVILLE     CLEAR     63  61  94 CALM      30.07F
MILFORD        CLOUDY    69  49  48 N10       30.09R
MOAB/CYNLANDS  CLEAR     64  62  93 CALM      30.04F
PRICE          RAIN      62  56  80 NE8       30.12F
ST GEORGE      CLOUDY    81  50  34 E5        29.93S
KANAB          CLEAR     64  54  68 N14       30.13F

$$

REGIONAL REPORTS     COLORADO/ARIZONA

CITY           SKY/WX    TMP DP  RH WIND       PRES   REMARKS
CRAIG, CO      CLOUDY    61  32  33 CALM      30.16F
GRAND JUNCTION CLOUDY    65  56  72 E9        30.06F
RIFLE          CLOUDY    61  58  90 CALM      30.15F
MONTROSE       CLOUDY    61  59  93 E7        30.15F
CORTEZ         CLEAR     62  56  80 SW10      30.16F
PAGE, AZ       CLEAR     69  60  73 CALM      30.05F
GRAND CANYON   CLEAR     51  49  92 CALM      30.22F
KINGMAN        CLEAR     73  45  36 E5        29.95S
FLAGSTAFF      CLEAR     51  50  96 CALM      30.26F

$$

REGIONAL REPORTS    NEVADA/IDAHO/WYOMING

CITY           SKY/WX    TMP DP  RH WIND       PRES   REMARKS
LAS VEGAS, NV  CLEAR     89  41  18 W3        29.77S
ELY            CLOUDY    61  43  51 S6        30.15S
ELKO           CLOUDY    70  48  45 SW7       30.07S
POCATELLO, ID  CLEAR     70  44  39 N8        29.94R
BURLEY         CLOUDY    68  53  58 S3        29.88F
EVANSTON, WY   CLOUDY    66  44  45 S12G20    30.21R
ROCK SPRINGS   CLOUDY    64  47  53 CALM      30.16S
KEMMERER       CLOUDY    68  37  32 SW5       30.19F

$$



USA.gov is the U.S. government's official web portal to all federal, state and local government web resources and services.